Skip Navigation
Skip Navigation

Today's Weather Data

Time Wind Dir Wind Spd
mph
Wind Gust
mph
Hum In
%
Humidity
%
Temp In
F
Temp
F
Raw Barom
in
Tot Rain
in
UV Solar
W/sqm
DailyRain
in
HourRain
in
24HrRain
in
RainRate
in/hr
5/3/2016 12:01:04a 246 0 2 32 63 79.7 61.5 30.01 11.52 0.0 0 0.00 0.00 0.00 0.000
5/3/2016 12:02:04a 246 0 2 32 63 79.7 61.4 30.01 11.52 0.0 0 0.00 0.00 0.00 0.000
5/3/2016 12:03:04a 246 0 2 32 63 79.7 61.4 30.01 11.52 0.0 0 0.00 0.00 0.00 0.000
5/3/2016 12:04:05a 246 0 2 32 63 79.7 61.3 30.01 11.52 0.0 0 0.00 0.00 0.00 0.000
5/3/2016 12:05:11a 246 1 2 32 63 79.7 61.2 30.01 11.52 0.0 0 0.00 0.00 0.00 0.000
5/3/2016 12:06:11a 246 1 2 32 63 79.7 61.2 30.01 11.52 0.0 0 0.00 0.00 0.00 0.000
5/3/2016 12:07:11a 246 2 2 32 64 79.7 61.1 30.01 11.52 0.0 0 0.00 0.00 0.00 0.000
5/3/2016 12:08:11a 246 3 4 32 64 79.7 61.1 30.01 11.52 0.0 0 0.00 0.00 0.00 0.000
5/3/2016 12:09:11a 246 3 4 32 64 79.5 61.0 30.01 11.52 0.0 0 0.00 0.00 0.00 0.000
5/3/2016 12:10:11a 246 3 4 32 64 79.5 60.9 30.01 11.52 0.0 0 0.00 0.00 0.00 0.000
5/3/2016 12:11:17a 246 0 4 32 64 79.5 60.9 30.01 11.52 0.0 0 0.00 0.00 0.00 0.000
5/3/2016 12:12:17a 246 1 4 32 64 79.5 60.8 30.01 11.52 0.0 0 0.00 0.00 0.00 0.000
5/3/2016 12:13:18a 246 0 4 32 64 79.5 60.8 30.01 11.52 0.0 0 0.00 0.00 0.00 0.000
5/3/2016 12:14:21a 246 0 4 32 64 79.5 60.7 30.01 11.52 0.0 0 0.00 0.00 0.00 0.000
5/3/2016 12:15:21a 246 1 4 32 64 79.5 60.7 30.01 11.52 0.0 0 0.00 0.00 0.00 0.000
5/3/2016 12:16:24a 246 2 4 32 64 79.5 60.7 30.01 11.52 0.0 0 0.00 0.00 0.00 0.000
5/3/2016 12:17:24a 246 3 4 32 64 79.5 60.6 30.01 11.52 0.0 0 0.00 0.00 0.00 0.000
5/3/2016 12:18:27a 246 1 4 32 64 79.3 60.5 30.01 11.52 0.0 0 0.00 0.00 0.00 0.000
5/3/2016 12:19:27a 246 0 4 32 64 79.3 60.5 30.01 11.52 0.0 0 0.00 0.00 0.00 0.000
5/3/2016 12:20:27a 246 1 1 32 64 79.3 60.4 30.01 11.52 0.0 0 0.00 0.00 0.00 0.000
5/3/2016 12:21:27a 346 3 4 32 64 79.3 60.4 30.01 11.52 0.0 0 0.00 0.00 0.00 0.000
5/3/2016 12:22:27a 349 1 4 32 64 79.3 60.3 30.01 11.52 0.0 0 0.00 0.00 0.00 0.000
5/3/2016 12:23:27a 349 2 4 32 64 79.3 60.3 30.01 11.52 0.0 0 0.00 0.00 0.00 0.000
5/3/2016 12:24:27a 350 2 4 32 65 79.3 60.2 30.01 11.52 0.0 0 0.00 0.00 0.00 0.000
5/3/2016 12:25:30a 350 1 4 32 65 79.3 60.2 30.01 11.52 0.0 0 0.00 0.00 0.00 0.000
5/3/2016 12:26:30a 350 2 4 32 65 79.3 60.1 30.01 11.52 0.0 0 0.00 0.00 0.00 0.000
5/3/2016 12:27:30a 350 1 4 32 65 79.1 60.1 30.01 11.52 0.0 0 0.00 0.00 0.00 0.000
5/3/2016 12:28:30a 350 1 4 32 65 79.1 60.1 30.01 11.52 0.0 0 0.00 0.00 0.00 0.000
5/3/2016 12:29:31a 350 0 4 32 65 79.1 60.0 30.01 11.52 0.0 0 0.00 0.00 0.00 0.000
5/3/2016 12:30:31a 349 1 4 32 65 79.1 60.0 30.01 11.52 0.0 0 0.00 0.00 0.00 0.000
5/3/2016 12:31:31a 350 0 4 32 65 79.1 59.9 30.01 11.52 0.0 0 0.00 0.00 0.00 0.000
5/3/2016 12:32:31a 350 2 4 32 65 79.1 59.9 30.01 11.52 0.0 0 0.00 0.00 0.00 0.000
5/3/2016 12:33:31a 349 1 4 32 65 79.1 59.9 30.01 11.52 0.0 0 0.00 0.00 0.00 0.000
5/3/2016 12:34:31a 350 0 4 32 65 79.1 59.9 30.01 11.52 0.0 0 0.00 0.00 0.00 0.000
5/3/2016 12:35:31a 350 0 0 32 65 79.1 59.8 30.01 11.52 0.0 0 0.00 0.00 0.00 0.000
5/3/2016 12:36:31a 349 1 1 32 65 78.9 59.8 30.01 11.52 0.0 0 0.00 0.00 0.00 0.000
5/3/2016 12:37:31a 349 0 1 32 65 78.9 59.8 30.00 11.52 0.0 0 0.00 0.00 0.00 0.000
5/3/2016 12:38:34a 349 0 1 32 66 78.9 59.8 30.01 11.52 0.0 0 0.00 0.00 0.00 0.000
5/3/2016 12:39:34a 350 0 1 32 66 78.9 59.7 30.00 11.52 0.0 0 0.00 0.00 0.00 0.000
5/3/2016 12:40:35a 349 0 1 32 66 78.9 59.7 30.00 11.52 0.0 0 0.00 0.00 0.00 0.000
5/3/2016 12:41:35a 350 0 1 32 66 78.9 59.6 30.00 11.52 0.0 0 0.00 0.00 0.00 0.000
5/3/2016 12:42:35a 350 0 1 32 66 78.9 59.6 30.00 11.52 0.0 0 0.00 0.00 0.00 0.000
5/3/2016 12:43:35a 350 0 1 32 66 78.9 59.6 30.00 11.52 0.0 0 0.00 0.00 0.00 0.000
5/3/2016 12:44:38a 350 0 1 32 66 78.9 59.6 30.00 11.52 0.0 0 0.00 0.00 0.00 0.000
5/3/2016 12:45:38a 349 0 1 32 66 78.8 59.5 30.00 11.52 0.0 0 0.00 0.00 0.00 0.000
5/3/2016 12:46:38a 350 0 1 32 66 78.8 59.5 30.00 11.52 0.0 0 0.00 0.00 0.00 0.000
5/3/2016 12:47:38a 350 0 1 32 66 78.8 59.5 30.00 11.52 0.0 0 0.00 0.00 0.00 0.000
5/3/2016 12:48:38a 349 0 1 32 66 78.8 59.4 30.01 11.52 0.0 0 0.00 0.00 0.00 0.000
5/3/2016 12:49:38a 349 0 1 32 66 78.8 59.4 30.01 11.52 0.0 0 0.00 0.00 0.00 0.000
5/3/2016 12:50:39a 349 0 0 32 66 78.8 59.4 30.01 11.52 0.0 0 0.00 0.00 0.00 0.000
5/3/2016 12:51:39a 349 0 0 32 66 78.8 59.3 30.01 11.52 0.0 0 0.00 0.00 0.00 0.000
5/3/2016 12:52:39a 350 0 0 32 66 78.8 59.3 30.01 11.52 0.0 0 0.00 0.00 0.00 0.000
5/3/2016 12:53:39a 350 0 0 32 66 78.8 59.3 30.01 11.52 0.0 0 0.00 0.00 0.00 0.000
5/3/2016 12:54:39a 350 0 0 32 66 78.8 59.3 30.01 11.52 0.0 0 0.00 0.00 0.00 0.000
5/3/2016 12:55:39a 350 0 0 33 66 78.6 59.3 30.01 11.52 0.0 0 0.00 0.00 0.00 0.000
5/3/2016 12:56:39a 349 0 0 33 66 78.6 59.3 30.01 11.52 0.0 0 0.00 0.00 0.00 0.000
5/3/2016 12:57:39a 349 1 2 33 66 78.6 59.3 30.01 11.52 0.0 0 0.00 0.00 0.00 0.000
5/3/2016 12:58:42a 350 1 2 33 66 78.6 59.3 30.01 11.52 0.0 0 0.00 0.00 0.00 0.000
5/3/2016 12:59:42a 349 0 2 33 66 78.6 59.3 30.01 11.52 0.0 0 0.00 0.00 0.00 0.000
5/3/2016 1:00:42a 350 1 2 33 67 78.6 59.3 30.01 11.52 0.0 0 0.00 0.00 0.00 0.000
5/3/2016 1:01:42a 349 1 2 33 67 78.6 59.3 30.01 11.52 0.0 0 0.00 0.00 0.00 0.000
5/3/2016 1:02:45a 349 2 2 33 67 78.6 59.2 30.00 11.52 0.0 0 0.00 0.00 0.00 0.000
5/3/2016 1:03:45a 350 1 3 33 67 78.6 59.1 30.01 11.52 0.0 0 0.00 0.00 0.00 0.000
5/3/2016 1:04:48a 350 0 3 33 67 78.6 59.0 30.00 11.52 0.0 0 0.00 0.00 0.00 0.000
5/3/2016 1:05:49a 350 0 2 33 67 78.4 59.0 30.00 11.52 0.0 0 0.00 0.00 0.00 0.000
5/3/2016 1:06:49a 350 0 2 33 67 78.4 59.0 30.00 11.52 0.0 0 0.00 0.00 0.00 0.000
5/3/2016 1:07:49a 350 0 2 33 67 78.4 58.9 30.00 11.52 0.0 0 0.00 0.00 0.00 0.000
5/3/2016 1:08:49a 350 0 2 33 68 78.4 58.9 30.00 11.52 0.0 0 0.00 0.00 0.00 0.000
5/3/2016 1:09:49a 349 0 2 33 67 78.4 58.9 30.00 11.52 0.0 0 0.00 0.00 0.00 0.000
5/3/2016 1:10:52a 350 1 2 33 67 78.4 58.8 30.00 11.52 0.0 0 0.00 0.00 0.00 0.000
5/3/2016 1:11:52a 350 0 2 33 68 78.4 58.8 30.00 11.52 0.0 0 0.00 0.00 0.00 0.000
5/3/2016 1:12:52a 349 0 2 33 68 78.4 58.8 30.00 11.52 0.0 0 0.00 0.00 0.00 0.000
5/3/2016 1:13:52a 349 0 2 33 68 78.4 58.7 30.00 11.52 0.0 0 0.00 0.00 0.00 0.000
5/3/2016 1:14:52a 350 0 2 33 68 78.2 58.7 30.00 11.52 0.0 0 0.00 0.00 0.00 0.000
5/3/2016 1:15:52a 350 0 2 33 68 78.2 58.7 30.00 11.52 0.0 0 0.00 0.00 0.00 0.000
5/3/2016 1:16:53a 350 0 2 33 68 78.2 58.7 30.00 11.52 0.0 0 0.00 0.00 0.00 0.000
5/3/2016 1:17:53a 350 0 2 33 68 78.2 58.6 30.00 11.52 0.0 0 0.00 0.00 0.00 0.000
5/3/2016 1:18:56a 350 0 2 33 68 78.2 58.6 30.00 11.52 0.0 0 0.00 0.00 0.00 0.000
5/3/2016 1:19:59a 350 0 0 33 68 78.2 58.6 30.00 11.52 0.0 0 0.00 0.00 0.00 0.000
5/3/2016 1:20:59a 350 0 0 33 68 78.2 58.6 30.00 11.52 0.0 0 0.00 0.00 0.00 0.000
5/3/2016 1:21:59a 349 0 0 33 68 78.2 58.6 30.00 11.52 0.0 0 0.00 0.00 0.00 0.000
5/3/2016 1:22:59a 350 1 1 33 69 78.1 58.6 29.99 11.52 0.0 0 0.00 0.00 0.00 0.000
5/3/2016 1:23:59a 349 0 1 33 69 78.1 58.5 30.00 11.52 0.0 0 0.00 0.00 0.00 0.000
5/3/2016 1:24:59a 349 0 1 33 69 78.1 58.5 30.00 11.52 0.0 0 0.00 0.00 0.00 0.000
5/3/2016 1:25:59a 350 1 1 33 69 78.1 58.5 30.00 11.52 0.0 0 0.00 0.00 0.00 0.000
5/3/2016 1:26:59a 350 0 1 33 69 78.1 58.5 29.99 11.52 0.0 0 0.00 0.00 0.00 0.000
5/3/2016 1:27:59a 350 0 1 33 69 78.1 58.5 29.99 11.52 0.0 0 0.00 0.00 0.00 0.000
5/3/2016 1:29:06a 349 0 1 33 69 78.1 58.5 29.99 11.52 0.0 0 0.00 0.00 0.00 0.000
5/3/2016 1:30:06a 349 0 1 33 69 78.1 58.4 29.99 11.52 0.0 0 0.00 0.00 0.00 0.000
5/3/2016 1:31:09a 349 0 1 33 69 78.1 58.4 29.99 11.52 0.0 0 0.00 0.00 0.00 0.000
5/3/2016 1:32:09a 349 0 1 33 69 78.1 58.4 30.00 11.52 0.0 0 0.00 0.00 0.00 0.000
5/3/2016 1:33:09a 350 1 1 33 69 77.9 58.4 29.99 11.52 0.0 0 0.00 0.00 0.00 0.000
5/3/2016 1:34:09a 350 0 1 33 69 77.9 58.4 29.99 11.52 0.0 0 0.00 0.00 0.00 0.000
5/3/2016 1:35:09a 350 0 0 33 69 77.9 58.3 29.99 11.52 0.0 0 0.00 0.00 0.00 0.000
5/3/2016 1:36:09a 350 0 0 33 69 77.9 58.3 30.00 11.52 0.0 0 0.00 0.00 0.00 0.000
5/3/2016 1:37:09a 349 0 0 33 69 77.9 58.3 29.99 11.52 0.0 0 0.00 0.00 0.00 0.000
5/3/2016 1:38:09a 349 0 0 33 69 77.9 58.3 30.00 11.52 0.0 0 0.00 0.00 0.00 0.000
5/3/2016 1:39:12a 350 0 0 33 69 77.9 58.3 30.00 11.52 0.0 0 0.00 0.00 0.00 0.000
5/3/2016 1:40:12a 349 0 0 33 69 77.9 58.3 29.99 11.52 0.0 0 0.00 0.00 0.00 0.000
5/3/2016 1:41:16a 350 0 0 33 69 77.9 58.2 29.99 11.52 0.0 0 0.00 0.00 0.00 0.000
5/3/2016 1:42:16a 350 0 0 33 69 77.7 58.2 29.99 11.52 0.0 0 0.00 0.00 0.00 0.000
5/3/2016 1:43:16a 349 0 0 33 69 77.7 58.2 29.99 11.52 0.0 0 0.00 0.00 0.00 0.000
5/3/2016 1:44:16a 349 0 0 33 69 77.7 58.1 29.99 11.52 0.0 0 0.00 0.00 0.00 0.000
5/3/2016 1:45:16a 350 0 0 33 69 77.7 58.1 29.99 11.52 0.0 0 0.00 0.00 0.00 0.000
5/3/2016 1:46:16a 350 0 0 33 69 77.7 58.1 29.99 11.52 0.0 0 0.00 0.00 0.00 0.000
5/3/2016 1:47:16a 350 0 0 33 69 77.7 58.1 29.99 11.52 0.0 0 0.00 0.00 0.00 0.000
5/3/2016 1:48:16a 349 0 0 33 69 77.7 58.1 29.99 11.52 0.0 0 0.00 0.00 0.00 0.000
5/3/2016 1:49:16a 350 0 1 33 69 77.7 58.1 29.99 11.52 0.0 0 0.00 0.00 0.00 0.000
5/3/2016 1:50:16a 349 0 0 33 70 77.7 58.0 29.99 11.52 0.0 0 0.00 0.00 0.00 0.000
5/3/2016 1:51:16a 349 0 1 33 70 77.5 58.0 29.99 11.52 0.0 0 0.00 0.00 0.00 0.000
5/3/2016 1:52:17a 349 0 1 33 70 77.5 58.0 29.99 11.52 0.0 0 0.00 0.00 0.00 0.000
5/3/2016 1:53:20a 350 0 1 33 70 77.5 57.9 29.99 11.52 0.0 0 0.00 0.00 0.00 0.000
5/3/2016 1:54:20a 350 0 1 33 70 77.5 57.9 29.99 11.52 0.0 0 0.00 0.00 0.00 0.000
5/3/2016 1:55:20a 350 0 1 33 70 77.5 57.9 29.99 11.52 0.0 0 0.00 0.00 0.00 0.000
5/3/2016 1:56:20a 350 0 1 33 70 77.5 57.9 29.99 11.52 0.0 0 0.00 0.00 0.00 0.000
5/3/2016 1:57:20a 350 0 1 33 70 77.5 57.8 29.99 11.52 0.0 0 0.00 0.00 0.00 0.000
5/3/2016 1:58:20a 349 1 1 33 70 77.5 57.8 29.99 11.52 0.0 0 0.00 0.00 0.00 0.000
5/3/2016 1:59:20a 349 0 1 33 70 77.5 57.8 29.99 11.52 0.0 0 0.00 0.00 0.00 0.000
5/3/2016 2:00:20a 349 0 1 33 70 77.3 57.8 29.99 11.52 0.0 0 0.00 0.00 0.00 0.000
5/3/2016 2:01:20a 350 0 1 33 70 77.3 57.8 29.99 11.52 0.0 0 0.00 0.00 0.00 0.000
5/3/2016 2:02:20a 349 0 1 33 70 77.3 57.7 29.99 11.52 0.0 0 0.00 0.00 0.00 0.000
5/3/2016 2:03:20a 350 0 1 33 70 77.3 57.7 29.99 11.52 0.0 0 0.00 0.00 0.00 0.000
5/3/2016 2:04:20a 350 0 1 33 70 77.3 57.7 29.99 11.52 0.0 0 0.00 0.00 0.00 0.000
5/3/2016 2:05:20a 350 0 0 33 70 77.3 57.7 29.98 11.52 0.0 0 0.00 0.00 0.00 0.000
5/3/2016 2:06:20a 349 0 1 33 70 77.3 57.7 29.98 11.52 0.0 0 0.00 0.00 0.00 0.000
5/3/2016 2:07:21a 350 0 1 33 70 77.3 57.7 29.98 11.52 0.0 0 0.00 0.00 0.00 0.000
5/3/2016 2:08:21a 350 0 1 33 70 77.3 57.7 29.98 11.52 0.0 0 0.00 0.00 0.00 0.000
5/3/2016 2:09:21a 349 0 1 33 70 77.2 57.7 29.98 11.52 0.0 0 0.00 0.00 0.00 0.000
5/3/2016 2:10:21a 350 0 1 33 70 77.2 57.7 29.98 11.52 0.0 0 0.00 0.00 0.00 0.000
5/3/2016 2:11:21a 350 0 1 33 70 77.2 57.7 29.98 11.52 0.0 0 0.00 0.00 0.00 0.000
5/3/2016 2:12:21a 350 0 1 33 70 77.2 57.6 29.98 11.52 0.0 0 0.00 0.00 0.00 0.000
5/3/2016 2:13:21a 349 0 1 33 70 77.2 57.7 29.98 11.52 0.0 0 0.00 0.00 0.00 0.000
5/3/2016 2:14:21a 349 0 1 33 70 77.2 57.7 29.98 11.52 0.0 0 0.00 0.00 0.00 0.000
5/3/2016 2:15:21a 349 0 1 33 70 77.2 57.6 29.98 11.52 0.0 0 0.00 0.00 0.00 0.000
5/3/2016 2:16:21a 350 0 1 33 70 77.2 57.6 29.98 11.52 0.0 0 0.00 0.00 0.00 0.000
5/3/2016 2:17:21a 350 0 1 33 70 77.2 57.6 29.98 11.52 0.0 0 0.00 0.00 0.00 0.000
5/3/2016 2:18:21a 350 0 1 33 70 77.2 57.6 29.98 11.52 0.0 0 0.00 0.00 0.00 0.000
5/3/2016 2:19:21a 350 0 2 33 70 77.0 57.6 29.98 11.52 0.0 0 0.00 0.00 0.00 0.000
5/3/2016 2:20:21a 349 0 0 33 70 77.0 57.6 29.98 11.52 0.0 0 0.00 0.00 0.00 0.000
5/3/2016 2:21:22a 349 0 0 33 70 77.0 57.6 29.98 11.52 0.0 0 0.00 0.00 0.00 0.000
5/3/2016 2:22:22a 350 0 0 33 70 77.0 57.6 29.98 11.52 0.0 0 0.00 0.00 0.00 0.000
5/3/2016 2:23:22a 350 0 0 33 70 77.0 57.5 29.98 11.52 0.0 0 0.00 0.00 0.00 0.000
5/3/2016 2:24:22a 350 0 0 33 70 77.0 57.5 29.98 11.52 0.0 0 0.00 0.00 0.00 0.000
5/3/2016 2:25:22a 350 2 2 33 70 77.0 57.5 29.98 11.52 0.0 0 0.00 0.00 0.00 0.000
5/3/2016 2:26:25a 350 0 2 33 70 77.0 57.4 29.98 11.52 0.0 0 0.00 0.00 0.00 0.000
5/3/2016 2:27:25a 350 0 2 34 70 77.0 57.4 29.98 11.52 0.0 0 0.00 0.00 0.00 0.000
5/3/2016 2:28:28a 350 0 2 34 70 76.8 57.4 29.98 11.52 0.0 0 0.00 0.00 0.00 0.000
5/3/2016 2:29:28a 350 0 2 34 70 76.8 57.4 29.98 11.52 0.0 0 0.00 0.00 0.00 0.000
5/3/2016 2:30:28a 350 0 2 34 71 76.8 57.4 29.98 11.52 0.0 0 0.00 0.00 0.00 0.000
5/3/2016 2:31:31a 350 0 2 34 71 76.8 57.3 29.98 11.52 0.0 0 0.00 0.00 0.00 0.000
5/3/2016 2:32:32a 350 0 2 34 71 76.8 57.3 29.98 11.52 0.0 0 0.00 0.00 0.00 0.000
5/3/2016 2:33:32a 350 0 2 34 71 76.8 57.2 29.98 11.52 0.0 0 0.00 0.00 0.00 0.000
5/3/2016 2:34:32a 350 0 2 34 71 76.8 57.2 29.98 11.52 0.0 0 0.00 0.00 0.00 0.000
5/3/2016 2:35:32a 349 0 0 34 71 76.8 57.2 29.98 11.52 0.0 0 0.00 0.00 0.00 0.000
5/3/2016 2:36:38a 350 0 0 34 71 76.8 57.2 29.98 11.52 0.0 0 0.00 0.00 0.00 0.000
5/3/2016 2:37:38a 350 1 1 34 71 76.6 57.2 29.98 11.52 0.0 0 0.00 0.00 0.00 0.000
5/3/2016 2:38:38a 350 0 1 34 71 76.6 57.1 29.98 11.52 0.0 0 0.00 0.00 0.00 0.000
5/3/2016 2:39:38a 349 0 1 34 71 76.6 57.1 29.98 11.52 0.0 0 0.00 0.00 0.00 0.000
5/3/2016 2:40:41a 349 0 1 34 71 76.6 57.1 29.98 11.52 0.0 0 0.00 0.00 0.00 0.000
5/3/2016 2:41:41a 349 0 1 34 71 76.6 57.0 29.97 11.52 0.0 0 0.00 0.00 0.00 0.000
5/3/2016 2:42:41a 350 1 1 34 71 76.6 57.0 29.98 11.52 0.0 0 0.00 0.00 0.00 0.000
5/3/2016 2:43:41a 350 0 2 34 71 76.6 57.0 29.98 11.52 0.0 0 0.00 0.00 0.00 0.000
5/3/2016 2:44:41a 350 1 2 34 71 76.6 57.0 29.97 11.52 0.0 0 0.00 0.00 0.00 0.000
5/3/2016 2:45:41a 350 0 2 34 71 76.6 57.0 29.98 11.52 0.0 0 0.00 0.00 0.00 0.000
5/3/2016 2:46:41a 350 0 2 34 71 76.5 56.9 29.98 11.52 0.0 0 0.00 0.00 0.00 0.000
5/3/2016 2:47:41a 349 1 2 34 71 76.5 56.9 29.98 11.52 0.0 0 0.00 0.00 0.00 0.000
5/3/2016 2:48:42a 349 2 2 34 71 76.5 56.9 29.98 11.52 0.0 0 0.00 0.00 0.00 0.000
5/3/2016 2:49:42a 350 0 2 34 71 76.5 56.9 29.98 11.52 0.0 0 0.00 0.00 0.00 0.000
5/3/2016 2:50:42a 350 0 0 34 71 76.5 56.8 29.98 11.52 0.0 0 0.00 0.00 0.00 0.000
5/3/2016 2:51:42a 350 0 0 34 71 76.5 56.8 29.98 11.52 0.0 0 0.00 0.00 0.00 0.000
5/3/2016 2:52:42a 350 0 0 34 71 76.5 56.8 29.98 11.52 0.0 0 0.00 0.00 0.00 0.000
5/3/2016 2:53:42a 350 0 0 34 71 76.5 56.8 29.98 11.52 0.0 0 0.00 0.00 0.00 0.000
5/3/2016 2:54:42a 350 0 0 34 71 76.5 56.8 29.98 11.52 0.0 0 0.00 0.00 0.00 0.000
5/3/2016 2:55:42a 350 0 0 34 71 76.5 56.8 29.98 11.52 0.0 0 0.00 0.00 0.00 0.000
5/3/2016 2:56:42a 349 0 0 34 71 76.3 56.8 29.98 11.52 0.0 0 0.00 0.00 0.00 0.000
5/3/2016 2:57:42a 350 0 0 34 71 76.3 56.8 29.98 11.52 0.0 0 0.00 0.00 0.00 0.000
5/3/2016 2:58:45a 349 0 0 34 71 76.3 56.8 29.98 11.52 0.0 0 0.00 0.00 0.00 0.000
5/3/2016 2:59:46a 349 0 0 34 71 76.3 56.8 29.98 11.52 0.0 0 0.00 0.00 0.00 0.000
5/3/2016 3:00:46a 350 0 0 34 71 76.3 56.7 29.98 11.52 0.0 0 0.00 0.00 0.00 0.000
5/3/2016 3:01:46a 350 0 0 34 71 76.3 56.8 29.98 11.52 0.0 0 0.00 0.00 0.00 0.000
5/3/2016 3:02:46a 350 0 0 34 71 76.3 56.8 29.98 11.52 0.0 0 0.00 0.00 0.00 0.000
5/3/2016 3:03:46a 350 0 1 34 71 76.3 56.7 29.98 11.52 0.0 0 0.00 0.00 0.00 0.000
5/3/2016 3:04:46a 349 0 2 34 71 76.3 56.7 29.97 11.52 0.0 0 0.00 0.00 0.00 0.000
5/3/2016 3:05:46a 349 2 3 34 71 76.1 56.7 29.97 11.52 0.0 0 0.00 0.00 0.00 0.000
5/3/2016 3:06:46a 346 1 3 34 71 76.1 56.7 29.97 11.52 0.0 0 0.00 0.00 0.00 0.000
5/3/2016 3:07:52a 348 0 3 34 71 76.1 56.7 29.97 11.52 0.0 0 0.00 0.00 0.00 0.000
5/3/2016 3:08:52a 348 1 3 34 71 76.1 56.7 29.97 11.52 0.0 0 0.00 0.00 0.00 0.000
5/3/2016 3:09:58a 348 0 3 34 71 76.1 56.6 29.97 11.52 0.0 0 0.00 0.00 0.00 0.000
5/3/2016 3:10:58a 348 0 3 34 71 76.1 56.6 29.97 11.52 0.0 0 0.00 0.00 0.00 0.000
5/3/2016 3:12:02a 348 0 3 34 71 76.1 56.6 29.97 11.52 0.0 0 0.00 0.00 0.00 0.000
5/3/2016 3:13:02a 348 0 3 34 71 76.1 56.6 29.97 11.52 0.0 0 0.00 0.00 0.00 0.000
5/3/2016 3:14:02a 348 0 3 34 71 75.9 56.5 29.97 11.52 0.0 0 0.00 0.00 0.00 0.000
5/3/2016 3:15:02a 348 0 3 34 71 75.9 56.5 29.97 11.52 0.0 0 0.00 0.00 0.00 0.000
5/3/2016 3:16:02a 348 0 3 34 71 75.9 56.5 29.97 11.52 0.0 0 0.00 0.00 0.00 0.000
5/3/2016 3:17:03a 348 0 3 34 71 75.9 56.5 29.97 11.52 0.0 0 0.00 0.00 0.00 0.000
5/3/2016 3:18:03a 348 0 3 34 71 75.9 56.5 29.97 11.52 0.0 0 0.00 0.00 0.00 0.000
5/3/2016 3:19:04a 348 0 3 34 71 75.9 56.5 29.97 11.52 0.0 0 0.00 0.00 0.00 0.000
5/3/2016 3:20:11a 348 0 0 34 71 75.9 56.5 29.97 11.52 0.0 0 0.00 0.00 0.00 0.000
5/3/2016 3:21:11a 348 0 0 34 71 75.9 56.5 29.97 11.52 0.0 0 0.00 0.00 0.00 0.000
5/3/2016 3:22:12a 348 0 0 34 71 75.9 56.5 29.97 11.52 0.0 0 0.00 0.00 0.00 0.000
5/3/2016 3:23:12a 348 0 0 34 71 75.9 56.5 29.97 11.52 0.0 0 0.00 0.00 0.00 0.000
5/3/2016 3:24:12a 348 1 1 34 71 75.8 56.5 29.97 11.52 0.0 0 0.00 0.00 0.00 0.000
5/3/2016 3:25:12a 348 0 1 34 71 75.8 56.4 29.97 11.52 0.0 0 0.00 0.00 0.00 0.000
5/3/2016 3:26:12a 348 0 1 34 71 75.8 56.5 29.97 11.52 0.0 0 0.00 0.00 0.00 0.000
5/3/2016 3:27:12a 348 0 1 34 71 75.8 56.4 29.97 11.52 0.0 0 0.00 0.00 0.00 0.000
5/3/2016 3:28:12a 348 1 1 34 71 75.8 56.4 29.97 11.52 0.0 0 0.00 0.00 0.00 0.000
5/3/2016 3:29:12a 348 0 1 34 71 75.8 56.4 29.97 11.52 0.0 0 0.00 0.00 0.00 0.000
5/3/2016 3:30:12a 348 0 1 34 71 75.8 56.4 29.97 11.52 0.0 0 0.00 0.00 0.00 0.000
5/3/2016 3:31:12a 348 0 1 34 71 75.8 56.4 29.97 11.52 0.0 0 0.00 0.00 0.00 0.000
5/3/2016 3:32:12a 348 0 1 34 71 75.8 56.3 29.97 11.52 0.0 0 0.00 0.00 0.00 0.000
5/3/2016 3:33:15a 348 0 1 34 71 75.8 56.3 29.97 11.52 0.0 0 0.00 0.00 0.00 0.000
5/3/2016 3:34:16a 348 0 1 34 71 75.8 56.3 29.97 11.52 0.0 0 0.00 0.00 0.00 0.000
5/3/2016 3:35:16a 348 0 0 34 71 75.8 56.3 29.97 11.52 0.0 0 0.00 0.00 0.00 0.000
5/3/2016 3:36:22a 348 1 1 34 71 75.6 56.2 29.97 11.52 0.0 0 0.00 0.00 0.00 0.000
5/3/2016 3:37:22a 348 0 1 34 71 75.6 56.2 29.97 11.52 0.0 0 0.00 0.00 0.00 0.000
5/3/2016 3:38:22a 348 0 1 34 71 75.6 56.2 29.97 11.52 0.0 0 0.00 0.00 0.00 0.000
5/3/2016 3:39:22a 348 0 1 34 71 75.6 56.1 29.97 11.52 0.0 0 0.00 0.00 0.00 0.000
5/3/2016 3:40:22a 348 0 1 34 71 75.6 56.1 29.97 11.52 0.0 0 0.00 0.00 0.00 0.000
5/3/2016 3:41:22a 348 0 1 34 72 75.6 56.1 29.97 11.52 0.0 0 0.00 0.00 0.00 0.000
5/3/2016 3:42:22a 348 0 1 34 72 75.6 56.1 29.97 11.52 0.0 0 0.00 0.00 0.00 0.000
5/3/2016 3:43:28a 348 0 1 34 72 75.6 56.1 29.97 11.52 0.0 0 0.00 0.00 0.00 0.000
5/3/2016 3:44:28a 348 0 1 34 72 75.6 56.1 29.97 11.52 0.0 0 0.00 0.00 0.00 0.000
5/3/2016 3:45:28a 348 1 1 34 72 75.4 56.1 29.97 11.52 0.0 0 0.00 0.00 0.00 0.000
5/3/2016 3:46:29a 348 0 1 34 72 75.4 56.1 29.97 11.52 0.0 0 0.00 0.00 0.00 0.000
5/3/2016 3:47:29a 348 0 1 34 72 75.4 56.1 29.97 11.52 0.0 0 0.00 0.00 0.00 0.000
5/3/2016 3:48:29a 348 0 1 34 72 75.4 56.1 29.97 11.52 0.0 0 0.00 0.00 0.00 0.000
5/3/2016 3:49:29a 348 0 1 34 72 75.4 56.1 29.97 11.52 0.0 0 0.00 0.00 0.00 0.000
5/3/2016 3:50:29a 348 0 0 34 72 75.4 56.1 29.97 11.52 0.0 0 0.00 0.00 0.00 0.000
5/3/2016 3:51:29a 348 0 0 34 72 75.4 56.1 29.97 11.52 0.0 0 0.00 0.00 0.00 0.000
5/3/2016 3:52:32a 348 0 1 34 72 75.4 56.1 29.97 11.52 0.0 0 0.00 0.00 0.00 0.000
5/3/2016 3:53:32a 348 0 1 34 72 75.4 56.0 29.97 11.52 0.0 0 0.00 0.00 0.00 0.000
5/3/2016 3:54:41a 348 0 1 34 72 75.4 56.0 29.97 11.52 0.0 0 0.00 0.00 0.00 0.000
5/3/2016 3:55:41a 348 0 1 34 72 75.2 56.0 29.97 11.52 0.0 0 0.00 0.00 0.00 0.000
5/3/2016 3:56:41a 348 0 1 34 72 75.2 56.0 29.97 11.52 0.0 0 0.00 0.00 0.00 0.000
5/3/2016 3:57:41a 348 0 1 34 72 75.2 56.0 29.97 11.52 0.0 0 0.00 0.00 0.00 0.000
5/3/2016 3:58:41a 348 0 1 34 72 75.2 56.0 29.97 11.52 0.0 0 0.00 0.00 0.00 0.000
5/3/2016 3:59:42a 348 0 1 34 72 75.2 56.0 29.97 11.52 0.0 0 0.00 0.00 0.00 0.000
5/3/2016 4:00:42a 348 0 1 34 72 75.2 55.9 29.97 11.52 0.0 0 0.00 0.00 0.00 0.000
5/3/2016 4:01:42a 348 0 1 34 72 75.2 55.9 29.97 11.52 0.0 0 0.00 0.00 0.00 0.000
5/3/2016 4:02:42a 348 0 1 34 72 75.2 55.9 29.97 11.52 0.0 0 0.00 0.00 0.00 0.000
5/3/2016 4:03:42a 348 0 1 34 72 75.2 55.9 29.97 11.52 0.0 0 0.00 0.00 0.00 0.000
5/3/2016 4:04:42a 348 0 1 34 72 75.1 55.8 29.97 11.52 0.0 0 0.00 0.00 0.00 0.000
5/3/2016 4:05:42a 348 0 0 34 72 75.1 55.8 29.97 11.52 0.0 0 0.00 0.00 0.00 0.000
5/3/2016 4:06:42a 348 0 0 34 72 75.1 55.8 29.97 11.52 0.0 0 0.00 0.00 0.00 0.000
5/3/2016 4:07:42a 348 0 0 34 72 75.1 55.8 29.97 11.52 0.0 0 0.00 0.00 0.00 0.000
5/3/2016 4:08:42a 348 0 0 34 72 75.1 55.8 29.97 11.52 0.0 0 0.00 0.00 0.00 0.000
5/3/2016 4:09:42a 348 0 0 34 72 75.1 55.8 29.97 11.52 0.0 0 0.00 0.00 0.00 0.000
5/3/2016 4:10:42a 348 0 0 34 72 75.1 55.8 29.97 11.52 0.0 0 0.00 0.00 0.00 0.000
5/3/2016 4:11:45a 348 0 0 34 72 75.1 55.8 29.97 11.52 0.0 0 0.00 0.00 0.00 0.000
5/3/2016 4:12:45a 348 0 0 34 72 75.1 55.8 29.97 11.52 0.0 0 0.00 0.00 0.00 0.000
5/3/2016 4:13:46a 356 3 3 34 72 75.1 55.8 29.97 11.52 0.0 0 0.00 0.00 0.00 0.000
5/3/2016 4:14:46a 356 2 4 34 72 74.9 55.8 29.97 11.52 0.0 0 0.00 0.00 0.00 0.000
5/3/2016 4:15:46a 355 1 4 34 72 74.9 55.8 29.97 11.52 0.0 0 0.00 0.00 0.00 0.000
5/3/2016 4:16:46a 355 2 4 34 72 74.9 55.8 29.97 11.52 0.0 0 0.00 0.00 0.00 0.000
5/3/2016 4:17:46a 355 0 4 34 72 74.9 55.7 29.97 11.52 0.0 0 0.00 0.00 0.00 0.000
5/3/2016 4:18:46a 355 0 4 34 72 74.9 55.8 29.97 11.52 0.0 0 0.00 0.00 0.00 0.000
5/3/2016 4:19:46a 355 0 4 34 72 74.9 55.8 29.97 11.52 0.0 0 0.00 0.00 0.00 0.000
5/3/2016 4:20:46a 355 0 2 34 72 74.9 55.8 29.97 11.52 0.0 0 0.00 0.00 0.00 0.000
5/3/2016 4:21:46a 355 0 2 34 72 74.9 55.8 29.97 11.52 0.0 0 0.00 0.00 0.00 0.000
5/3/2016 4:22:46a 355 0 2 34 72 74.9 55.8 29.97 11.52 0.0 0 0.00 0.00 0.00 0.000
5/3/2016 4:23:47a 355 0 2 34 72 74.7 55.8 29.97 11.52 0.0 0 0.00 0.00 0.00 0.000
5/3/2016 4:24:47a 355 0 2 34 72 74.7 55.8 29.97 11.52 0.0 0 0.00 0.00 0.00 0.000
5/3/2016 4:25:47a 355 0 2 34 72 74.7 55.8 29.97 11.52 0.0 0 0.00 0.00 0.00 0.000
5/3/2016 4:26:47a 355 0 2 34 72 74.7 55.8 29.97 11.52 0.0 0 0.00 0.00 0.00 0.000
5/3/2016 4:27:47a 355 0 2 34 72 74.7 55.8 29.97 11.52 0.0 0 0.00 0.00 0.00 0.000
5/3/2016 4:28:50a 355 1 2 34 72 74.7 55.8 29.97 11.52 0.0 0 0.00 0.00 0.00 0.000
5/3/2016 4:29:50a 355 2 2 34 72 74.7 55.8 29.97 11.52 0.0 0 0.00 0.00 0.00 0.000
5/3/2016 4:30:50a 355 2 3 34 72 74.7 55.8 29.97 11.52 0.0 0 0.00 0.00 0.00 0.000
5/3/2016 4:31:50a 355 2 4 34 72 74.7 55.8 29.97 11.52 0.0 0 0.00 0.00 0.00 0.000
5/3/2016 4:32:50a 355 0 4 34 72 74.7 55.7 29.97 11.52 0.0 0 0.00 0.00 0.00 0.000
5/3/2016 4:33:51a 355 0 4 34 74 74.5 55.7 29.97 11.52 0.0 0 0.00 0.00 0.00 0.000
5/3/2016 4:34:51a 355 0 4 34 72 74.5 55.6 29.97 11.52 0.0 0 0.00 0.00 0.00 0.000
5/3/2016 4:35:51a 355 0 0 34 72 74.5 55.6 29.97 11.52 0.0 0 0.00 0.00 0.00 0.000
5/3/2016 4:36:51a 355 0 0 34 72 74.5 55.6 29.97 11.52 0.0 0 0.00 0.00 0.00 0.000
5/3/2016 4:37:51a 355 0 0 34 71 74.5 55.6 29.97 11.52 0.0 0 0.00 0.00 0.00 0.000
5/3/2016 4:38:54a 355 0 0 34 71 74.5 55.5 29.97 11.52 0.0 0 0.00 0.00 0.00 0.000
5/3/2016 4:39:54a 355 0 0 34 71 74.5 55.5 29.97 11.52 0.0 0 0.00 0.00 0.00 0.000
5/3/2016 4:41:00a 355 0 0 34 71 74.5 55.5 29.97 11.52 0.0 0 0.00 0.00 0.00 0.000
5/3/2016 4:42:00a 355 0 0 34 71 74.5 55.5 29.97 11.52 0.0 0 0.00 0.00 0.00 0.000
5/3/2016 4:43:00a 355 1 1 34 71 74.4 55.4 29.97 11.52 0.0 0 0.00 0.00 0.00 0.000
5/3/2016 4:44:03a 355 0 1 34 71 74.4 55.5 29.97 11.52 0.0 0 0.00 0.00 0.00 0.000
5/3/2016 4:45:03a 355 0 1 34 71 74.4 55.5 29.97 11.52 0.0 0 0.00 0.00 0.00 0.000
5/3/2016 4:46:03a 355 0 1 35 71 74.4 55.5 29.97 11.52 0.0 0 0.00 0.00 0.00 0.000
5/3/2016 4:47:04a 355 0 1 35 71 74.4 55.6 29.97 11.52 0.0 0 0.00 0.00 0.00 0.000
5/3/2016 4:48:04a 355 0 1 35 71 74.4 55.6 29.97 11.52 0.0 0 0.00 0.00 0.00 0.000
5/3/2016 4:49:04a 355 0 1 35 71 74.4 55.6 29.97 11.52 0.0 0 0.00 0.00 0.00 0.000
5/3/2016 4:50:10a 355 0 0 35 71 74.4 55.6 29.97 11.52 0.0 0 0.00 0.00 0.00 0.000
5/3/2016 4:51:10a 355 0 0 35 71 74.4 55.6 29.97 11.52 0.0 0 0.00 0.00 0.00 0.000
5/3/2016 4:52:10a 355 0 0 35 71 74.4 55.6 29.97 11.52 0.0 0 0.00 0.00 0.00 0.000
5/3/2016 4:53:10a 355 0 0 35 71 74.2 55.6 29.97 11.52 0.0 0 0.00 0.00 0.00 0.000
5/3/2016 4:54:10a 355 0 0 35 71 74.2 55.6 29.97 11.52 0.0 0 0.00 0.00 0.00 0.000
5/3/2016 4:55:10a 355 0 0 35 71 74.2 55.6 29.97 11.52 0.0 0 0.00 0.00 0.00 0.000
5/3/2016 4:56:10a 355 0 0 35 71 74.2 55.7 29.97 11.52 0.0 0 0.00 0.00 0.00 0.000
5/3/2016 4:57:11a 355 0 0 35 71 74.2 55.6 29.97 11.52 0.0 0 0.00 0.00 0.00 0.000
5/3/2016 4:58:14a 355 0 0 35 71 74.2 55.7 29.96 11.52 0.0 0 0.00 0.00 0.00 0.000
5/3/2016 4:59:14a 355 0 0 35 71 74.2 55.7 29.97 11.52 0.0 0 0.00 0.00 0.00 0.000
5/3/2016 5:00:17a 355 0 0 35 71 74.2 55.6 29.97 11.52 0.0 0 0.00 0.00 0.00 0.000
5/3/2016 5:01:17a 355 0 0 35 71 74.2 55.6 29.97 11.52 0.0 0 0.00 0.00 0.00 0.000
5/3/2016 5:02:17a 355 0 0 35 71 74.0 55.6 29.97 11.52 0.0 0 0.00 0.00 0.00 0.000
5/3/2016 5:03:17a 355 0 0 35 71 74.0 55.6 29.97 11.52 0.0 0 0.00 0.00 0.00 0.000
5/3/2016 5:04:17a 355 0 0 35 71 74.0 55.6 29.97 11.52 0.0 0 0.00 0.00 0.00 0.000
5/3/2016 5:05:18a 355 0 0 35 71 74.0 55.6 29.97 11.52 0.0 0 0.00 0.00 0.00 0.000
5/3/2016 5:06:18a 355 0 0 35 71 74.0 55.6 29.97 11.52 0.0 0 0.00 0.00 0.00 0.000
5/3/2016 5:07:18a 355 0 0 35 71 74.0 55.5 29.97 11.52 0.0 0 0.00 0.00 0.00 0.000
5/3/2016 5:08:21a 355 0 0 35 71 74.0 55.5 29.98 11.52 0.0 0 0.00 0.00 0.00 0.000
5/3/2016 5:09:21a 355 0 0 35 71 74.0 55.5 29.98 11.52 0.0 0 0.00 0.00 0.00 0.000
5/3/2016 5:10:21a 355 0 3 35 71 74.0 55.5 29.98 11.52 0.0 0 0.00 0.00 0.00 0.000
5/3/2016 5:11:21a 355 0 3 35 71 74.0 55.5 29.98 11.52 0.0 0 0.00 0.00 0.00 0.000
5/3/2016 5:12:21a 355 0 3 35 71 73.9 55.5 29.98 11.52 0.0 0 0.00 0.00 0.00 0.000
5/3/2016 5:13:21a 355 0 3 35 71 73.9 55.5 29.98 11.52 0.0 0 0.00 0.00 0.00 0.000
5/3/2016 5:14:21a 355 0 3 35 71 73.9 55.5 29.98 11.52 0.0 0 0.00 0.00 0.00 0.000
5/3/2016 5:15:28a 355 0 3 35 71 73.9 55.4 29.98 11.52 0.0 0 0.00 0.00 0.00 0.000
5/3/2016 5:16:28a 355 0 3 35 71 73.9 55.4 29.98 11.52 0.0 0 0.00 0.00 0.00 0.000
5/3/2016 5:17:34a 355 0 3 35 71 73.9 55.4 29.98 11.52 0.0 0 0.00 0.00 0.00 0.000
5/3/2016 5:18:34a 355 0 3 35 71 73.9 55.4 29.98 11.52 0.0 0 0.00 0.00 0.00 0.000
5/3/2016 5:19:34a 355 0 3 35 71 73.9 55.4 29.98 11.52 0.0 0 0.00 0.00 0.00 0.000
5/3/2016 5:20:37a 355 0 0 35 71 73.9 55.4 29.98 11.52 0.0 0 0.00 0.00 0.00 0.000
5/3/2016 5:21:37a 355 1 2 35 71 73.9 55.4 29.98 11.52 0.0 0 0.00 0.00 0.00 0.000
5/3/2016 5:22:37a 355 0 2 35 71 73.9 55.4 29.98 11.52 0.0 0 0.00 0.00 0.00 0.000
5/3/2016 5:23:37a 355 0 2 35 71 73.7 55.4 29.98 11.52 0.0 0 0.00 0.00 0.00 0.000
5/3/2016 5:24:37a 355 0 2 35 71 73.7 55.4 29.98 11.52 0.0 0 0.00 0.00 0.00 0.000
5/3/2016 5:25:38a 355 0 2 35 72 73.7 55.4 29.98 11.52 0.0 0 0.00 0.00 0.00 0.000
5/3/2016 5:26:38a 355 0 2 35 72 73.7 55.4 29.98 11.52 0.0 0 0.00 0.00 0.00 0.000
5/3/2016 5:27:38a 355 0 2 35 72 73.7 55.4 29.98 11.52 0.0 0 0.00 0.00 0.00 0.000
5/3/2016 5:28:38a 355 0 2 35 72 73.7 55.4 29.98 11.52 0.0 0 0.00 0.00 0.00 0.000
5/3/2016 5:29:41a 355 0 3 35 72 73.7 55.4 29.98 11.52 0.0 0 0.00 0.00 0.00 0.000
5/3/2016 5:30:41a 355 0 3 35 72 73.7 55.4 29.98 11.52 0.0 0 0.00 0.00 0.00 0.000
5/3/2016 5:31:41a 355 1 3 35 72 73.7 55.4 29.98 11.52 0.0 0 0.00 0.00 0.00 0.000
5/3/2016 5:32:41a 355 0 3 35 72 73.7 55.4 29.98 11.52 0.0 0 0.00 0.00 0.00 0.000
5/3/2016 5:33:41a 355 0 3 35 72 73.5 55.4 29.98 11.52 0.0 0 0.00 0.00 0.00 0.000
5/3/2016 5:34:41a 355 3 3 35 72 73.5 55.4 29.98 11.52 0.0 0 0.00 0.00 0.00 0.000
5/3/2016 5:35:42a 355 0 1 35 72 73.5 55.4 29.98 11.52 0.0 0 0.00 0.00 0.00 0.000
5/3/2016 5:36:42a 355 0 1 35 72 73.5 55.4 29.98 11.52 0.0 0 0.00 0.00 0.00 0.000
5/3/2016 5:37:42a 355 0 1 35 72 73.5 55.4 29.98 11.52 0.0 0 0.00 0.00 0.00 0.000
5/3/2016 5:38:45a 355 0 1 35 72 73.5 55.4 29.98 11.52 0.0 0 0.00 0.00 0.00 0.000
5/3/2016 5:39:45a 355 0 1 35 72 73.5 55.4 29.98 11.52 0.0 0 0.00 0.00 0.00 0.000
5/3/2016 5:40:45a 355 0 3 35 72 73.5 55.4 29.98 11.52 0.0 0 0.00 0.00 0.00 0.000
5/3/2016 5:41:51a 355 0 3 35 72 73.5 55.4 29.98 11.52 0.0 0 0.00 0.00 0.00 0.000
5/3/2016 5:42:51a 355 0 3 35 72 73.5 55.4 29.98 11.52 0.0 0 0.00 0.00 0.00 0.000
5/3/2016 5:43:51a 355 0 3 35 72 73.3 55.4 29.98 11.52 0.0 0 0.00 0.00 0.00 0.000
5/3/2016 5:44:51a 355 0 3 35 72 73.3 55.4 29.98 11.52 0.0 0 0.00 0.00 0.00 0.000
5/3/2016 5:45:51a 355 0 3 35 72 73.3 55.4 29.98 11.52 0.0 0 0.00 0.00 0.00 0.000
5/3/2016 5:46:51a 355 0 3 35 72 73.3 55.4 29.98 11.52 0.0 0 0.00 0.00 0.00 0.000
5/3/2016 5:47:52a 353 3 3 35 72 73.3 55.4 29.98 11.52 0.0 0 0.00 0.00 0.00 0.000
5/3/2016 5:48:55a 337 2 4 35 72 73.3 55.4 29.98 11.52 0.0 0 0.00 0.00 0.00 0.000
5/3/2016 5:49:55a 337 0 4 35 72 73.3 55.4 29.98 11.52 0.0 0 0.00 0.00 0.00 0.000
5/3/2016 5:50:55a 337 0 0 35 72 73.3 55.4 29.98 11.52 0.0 0 0.00 0.00 0.00 0.000
5/3/2016 5:51:55a 338 0 0 35 72 73.3 55.4 29.98 11.52 0.0 0 0.00 0.00 0.00 0.000
5/3/2016 5:52:55a 338 0 0 35 72 73.3 55.4 29.98 11.52 0.0 0 0.00 0.00 0.00 0.000
5/3/2016 5:53:55a 338 0 0 35 72 73.2 55.4 29.98 11.52 0.0 0 0.00 0.00 0.00 0.000
5/3/2016 5:54:55a 337 0 0 35 72 73.2 55.4 29.98 11.52 0.0 0 0.00 0.00 0.00 0.000
5/3/2016 5:55:55a 338 0 0 35 72 73.2 55.4 29.98 11.52 0.0 0 0.00 0.00 0.00 0.000
5/3/2016 5:56:59a 338 0 0 35 72 73.2 55.4 29.98 11.52 0.0 0 0.00 0.00 0.00 0.000
5/3/2016 5:57:59a 338 0 0 35 72 73.2 55.4 29.98 11.52 0.0 0 0.00 0.00 0.00 0.000
5/3/2016 5:58:59a 337 0 0 35 72 73.2 55.4 29.99 11.52 0.0 0 0.00 0.00 0.00 0.000
5/3/2016 6:00:59a 338 0 0 35 72 73.2 55.4 29.98 11.52 0.0 5 0.00 0.00 0.00 0.000
5/3/2016 6:01:59a 338 0 0 35 72 73.2 55.4 29.98 11.52 0.0 5 0.00 0.00 0.00 0.000
5/3/2016 6:02:59a 338 0 0 35 72 73.2 55.5 29.99 11.52 0.0 5 0.00 0.00 0.00 0.000
5/3/2016 6:03:59a 338 0 0 35 72 73.2 55.4 29.99 11.52 0.0 5 0.00 0.00 0.00 0.000
5/3/2016 6:04:59a 338 0 0 35 72 73.0 55.4 29.99 11.52 0.0 7 0.00 0.00 0.00 0.000
5/3/2016 6:05:59a 338 0 0 35 72 73.0 55.4 29.99 11.52 0.0 7 0.00 0.00 0.00 0.000
5/3/2016 6:07:02a 338 0 0 35 72 73.0 55.5 29.99 11.52 0.0 7 0.00 0.00 0.00 0.000
5/3/2016 6:08:03a 338 0 0 35 72 73.0 55.5 29.99 11.52 0.0 9 0.00 0.00 0.00 0.000
5/3/2016 6:09:03a 338 0 0 35 73 73.0 55.5 29.99 11.52 0.0 9 0.00 0.00 0.00 0.000
5/3/2016 6:10:06a 338 0 0 35 73 73.0 55.5 29.99 11.52 0.0 9 0.00 0.00 0.00 0.000
5/3/2016 6:11:06a 337 0 0 35 73 73.0 55.5 29.99 11.52 0.0 11 0.00 0.00 0.00 0.000
5/3/2016 6:12:06a 338 0 0 35 73 73.0 55.5 29.99 11.52 0.0 11 0.00 0.00 0.00 0.000
5/3/2016 6:13:06a 338 0 0 35 73 73.0 55.5 29.99 11.52 0.0 11 0.00 0.00 0.00 0.000
5/3/2016 6:14:06a 338 0 0 35 73 73.0 55.5 29.99 11.52 0.0 12 0.00 0.00 0.00 0.000
5/3/2016 6:15:06a 338 0 0 35 73 72.8 55.6 29.99 11.52 0.0 12 0.00 0.00 0.00 0.000
5/3/2016 6:16:06a 338 0 0 35 73 72.8 55.6 29.99 11.52 0.0 12 0.00 0.00 0.00 0.000
5/3/2016 6:17:07a 338 0 0 35 73 72.8 55.6 29.99 11.52 0.0 12 0.00 0.00 0.00 0.000
5/3/2016 6:18:10a 337 0 0 35 73 72.8 55.6 29.99 11.52 0.0 14 0.00 0.00 0.00 0.000
5/3/2016 6:19:10a 338 2 2 35 73 72.8 55.6 29.99 11.52 0.0 14 0.00 0.00 0.00 0.000
5/3/2016 6:20:13a 338 0 0 35 73 72.8 55.6 30.00 11.52 0.0 14 0.00 0.00 0.00 0.000
5/3/2016 6:21:13a 338 0 0 35 73 72.8 55.6 29.99 11.52 0.0 14 0.00 0.00 0.00 0.000
5/3/2016 6:22:13a 338 0 0 35 73 72.8 55.6 29.99 11.52 0.0 14 0.00 0.00 0.00 0.000
5/3/2016 6:23:13a 198 0 0 35 73 72.8 55.6 29.99 11.52 0.0 16 0.00 0.00 0.00 0.000
5/3/2016 6:24:13a 198 0 0 35 73 72.8 55.7 29.99 11.52 0.0 18 0.00 0.00 0.00 0.000
5/3/2016 6:25:13a 198 0 0 35 73 72.8 55.7 29.99 11.52 0.0 18 0.00 0.00 0.00 0.000
5/3/2016 6:26:13a 192 0 0 35 73 72.8 55.7 29.99 11.52 0.0 18 0.00 0.00 0.00 0.000
5/3/2016 6:27:13a 192 0 0 35 73 72.8 55.7 29.99 11.52 0.0 18 0.00 0.00 0.00 0.000
5/3/2016 6:28:13a 192 0 0 35 73 72.8 55.7 29.99 11.52 0.0 19 0.00 0.00 0.00 0.000
5/3/2016 6:29:14a 355 2 4 35 73 72.8 55.7 29.99 11.52 0.0 26 0.00 0.00 0.00 0.000
5/3/2016 6:30:14a 355 0 4 35 73 72.8 55.7 29.99 11.52 0.0 44 0.00 0.00 0.00 0.000
5/3/2016 6:31:14a 355 0 4 35 73 72.8 55.7 29.99 11.52 0.0 58 0.00 0.00 0.00 0.000
5/3/2016 6:32:14a 355 0 4 35 73 72.8 55.7 29.99 11.52 0.0 58 0.00 0.00 0.00 0.000
5/3/2016 6:33:14a 355 0 4 35 73 72.8 55.8 29.99 11.52 0.0 63 0.00 0.00 0.00 0.000
5/3/2016 6:34:14a 355 0 4 35 73 72.8 55.8 29.99 11.52 0.0 65 0.00 0.00 0.00 0.000
5/3/2016 6:35:14a 355 0 0 35 73 72.8 55.8 29.99 11.52 0.0 70 0.00 0.00 0.00 0.000
5/3/2016 6:36:14a 355 0 0 35 73 72.7 55.8 29.99 11.52 0.0 74 0.00 0.00 0.00 0.000
5/3/2016 6:37:14a 355 0 0 35 73 72.7 55.9 29.99 11.52 0.0 76 0.00 0.00 0.00 0.000
5/3/2016 6:38:14a 355 0 0 35 73 72.7 55.9 30.00 11.52 0.0 79 0.00 0.00 0.00 0.000
5/3/2016 6:39:14a 355 0 0 35 73 72.7 55.9 30.00 11.52 0.0 79 0.00 0.00 0.00 0.000
5/3/2016 6:40:14a 355 0 0 35 73 72.7 55.9 30.00 11.52 0.0 84 0.00 0.00 0.00 0.000
5/3/2016 6:41:15a 355 0 0 35 73 72.7 56.0 30.00 11.52 0.0 90 0.00 0.00 0.00 0.000
5/3/2016 6:42:15a 355 0 0 35 73 72.7 56.0 30.00 11.52 0.0 93 0.00 0.00 0.00 0.000
5/3/2016 6:43:15a 355 0 0 35 73 72.7 56.0 30.00 11.52 0.0 97 0.00 0.00 0.00 0.000
5/3/2016 6:44:15a 355 1 2 35 73 72.7 56.1 30.00 11.52 0.0 100 0.00 0.00 0.00 0.000
5/3/2016 6:45:15a 355 3 3 35 73 72.7 56.1 30.00 11.52 0.0 104 0.00 0.00 0.00 0.000
5/3/2016 6:46:21a 354 2 3 35 73 72.7 56.2 30.00 11.52 0.0 109 0.00 0.00 0.00 0.000
5/3/2016 6:47:21a 353 0 3 35 73 72.7 56.3 30.00 11.52 0.0 113 0.00 0.00 0.00 0.000
5/3/2016 6:48:21a 354 0 3 35 73 72.7 56.4 30.00 11.52 0.0 114 0.00 0.00 0.00 0.000
5/3/2016 6:49:21a 353 0 3 35 73 72.7 56.4 30.00 11.52 0.0 118 0.00 0.00 0.00 0.000
5/3/2016 6:50:21a 354 0 0 35 73 72.7 56.5 30.00 11.52 0.0 120 0.00 0.00 0.00 0.000
5/3/2016 6:51:21a 354 0 0 35 72 72.7 56.6 30.00 11.52 0.0 121 0.00 0.00 0.00 0.000
5/3/2016 6:52:21a 354 0 0 35 72 72.7 56.7 30.00 11.52 0.0 128 0.00 0.00 0.00 0.000
5/3/2016 6:53:21a 353 0 0 35 72 72.7 56.7 30.00 11.52 0.0 128 0.00 0.00 0.00 0.000
5/3/2016 6:54:21a 353 0 0 35 72 72.7 56.8 30.00 11.52 0.0 134 0.00 0.00 0.00 0.000
5/3/2016 6:55:22a 353 0 0 35 72 72.7 56.9 30.00 11.52 0.0 135 0.00 0.00 0.00 0.000
5/3/2016 6:56:22a 353 0 0 35 72 72.7 57.0 30.00 11.52 0.0 139 0.00 0.00 0.00 0.000
5/3/2016 6:57:25a 353 0 0 35 72 72.7 57.1 30.00 11.52 0.0 144 0.00 0.00 0.00 0.000
5/3/2016 6:58:25a 354 0 0 35 72 72.7 57.2 30.00 11.52 0.0 146 0.00 0.00 0.00 0.000
5/3/2016 6:59:25a 354 0 0 35 72 72.7 57.3 30.00 11.52 0.0 149 0.00 0.00 0.00 0.000
5/3/2016 7:00:25a 354 1 2 35 72 72.7 57.4 30.00 11.52 0.0 151 0.00 0.00 0.00 0.000
5/3/2016 7:01:25a 354 1 2 35 72 72.7 57.6 30.00 11.52 0.0 155 0.00 0.00 0.00 0.000
5/3/2016 7:02:25a 354 0 2 35 72 72.7 57.8 29.99 11.52 0.0 156 0.00 0.00 0.00 0.000
5/3/2016 7:03:25a 353 0 2 35 72 72.7 57.9 29.99 11.52 0.0 162 0.00 0.00 0.00 0.000
5/3/2016 7:04:25a 354 0 2 35 71 72.7 58.0 29.99 11.52 0.0 165 0.00 0.00 0.00 0.000
5/3/2016 7:05:31a 354 0 2 35 71 72.7 58.1 30.00 11.52 0.0 167 0.00 0.00 0.00 0.000
5/3/2016 7:06:31a 354 0 2 35 71 72.7 58.3 30.00 11.52 0.0 171 0.00 0.00 0.00 0.000
5/3/2016 7:07:32a 353 0 2 35 71 72.7 58.4 30.00 11.52 0.0 172 0.00 0.00 0.00 0.000
5/3/2016 7:08:32a 353 0 2 35 71 72.7 58.6 30.00 11.52 0.0 179 0.00 0.00 0.00 0.000
5/3/2016 7:09:32a 354 0 2 35 70 72.7 58.7 29.99 11.52 0.0 183 0.00 0.00 0.00 0.000
5/3/2016 7:10:32a 354 0 2 35 70 72.7 58.8 29.99 11.52 0.0 185 0.00 0.00 0.00 0.000
5/3/2016 7:11:32a 354 0 2 35 70 72.7 58.9 29.99 11.52 0.0 188 0.00 0.00 0.00 0.000
5/3/2016 7:12:32a 354 0 2 35 70 72.7 59.0 30.00 11.52 0.0 192 0.00 0.00 0.00 0.000
5/3/2016 7:13:32a 354 0 2 35 70 72.7 59.2 29.99 11.52 0.0 193 0.00 0.00 0.00 0.000
5/3/2016 7:14:32a 353 0 2 35 70 72.7 59.3 29.99 11.52 0.0 200 0.00 0.00 0.00 0.000
5/3/2016 7:15:32a 20 0 2 35 69 72.7 59.3 30.00 11.52 0.0 204 0.00 0.00 0.00 0.000
5/3/2016 7:16:33a 272 0 2 35 69 72.7 59.3 30.00 11.52 0.0 206 0.00 0.00 0.00 0.000
5/3/2016 7:17:33a 272 0 2 35 69 72.7 59.3 30.00 11.52 0.0 209 0.00 0.00 0.00 0.000
5/3/2016 7:18:36a 273 0 2 35 69 72.7 59.4 30.00 11.52 0.0 211 0.00 0.00 0.00 0.000
5/3/2016 7:19:37a 273 0 2 35 69 72.7 59.6 29.99 11.52 0.0 218 0.00 0.00 0.00 0.000

© All rights reserved. Unauthorized duplication or distribution is prohibited

Never base important decisions on this or any weather information obtained from the Internet

California State University, San Bernardino
5500 University Parkway, San Bernardino, CA. 92407
Phone: (909) 537-7558, Email: Weather Master
Last Updated: